RH
100 100 100 102 102 101 101 100 101 101 101 101 100 100 99 98 97 94 90 84 78 74 70 67 65 63 59 57 55 54 53 52 51 49 48 48 49 49 50 49 46 42 40 38 36 36 37 39 43 47 50 53 56 57 57 57 55 53 51 49 48 45 42 43 44 46 50 48 42 40 38 34 34 34 33 35 36 36 42 69 100 94 70 57 44
100 101 100 100 101 102 103 102 101 102 101 102 101 100 100 100 100 98 94 89 84 78 73 70 67 63 59 57 56 55 53 52 50 50 51 51 52 53 52 49 46 42 40 38 37 37 38 41 43 45 48 51 53 55 55 55 54 52 50 48 47 46 42 41 43 44 47 48 45 41 38 35 34 34 33 31 33 36 35 53 80 85 83 79 56
96 100 99 99 102 105 106 103 101 102 101 102 103 101 100 100 101 101 97 92 87 81 75 71 68 65 63 62 60 57 53 51 51 51 53 54 55 55 52 48 45 42 40 39 38 39 41 43 44 45 46 48 48 50 50 51 51 49 48 46 44 44 42 39 39 41 43 45 45 43 40 37 35 32 32 31 30 32 33 40 51 65 91 97 70
75 81 84 85 88 93 96 95 96 99 100 101 104 104 100 99 102 104 101 95 90 83 78 76 75 72 70 67 62 57 52 53 53 54 57 59 58 55 51 47 44 42 40 39 39 41 43 44 46 47 47 47 47 47 47 47 47 47 46 46 44 44 43 40 38 37 39 40 42 45 43 40 38 34 31 30 30 30 30 35 38 45 78 105 90
61 63 63 62 63 68 70 71 75 83 88 92 95 94 91 90 90 92 92 88 84 82 82 84 84 78 72 67 60 56 57 58 59 60 63 62 57 52 48 45 43 42 41 41 41 43 44 45 46 47 46 46 46 46 46 46 46 45 45 44 44 44 43 42 40 37 36 38 40 43 45 43 41 37 34 30 29 29 28 30 35 36 56 94 103
56 55 54 55 60 64 64 65 67 68 71 77 80 80 80 81 82 83 84 82 83 87 89 87 84 76 69 64 61 62 64 63 63 64 63 58 52 48 46 44 44 43 44 45 47 48 50 50 50 49 48 48 47 46 47 47 46 46 45 45 44 44 43 42 41 39 36 36 37 39 41 41 40 38 36 33 30 30 29 27 32 35 40 65 90
50 51 52 54 58 61 65 70 72 72 74 77 79 82 84 86 86 84 83 84 91 95 91 84 79 73 69 69 69 69 67 65 64 62 58 53 49 46 46 47 48 48 49 49 51 52 53 53 52 50 49 47 46 45 45 45 46 45 45 45 44 43 43 42 40 39 37 36 36 37 39 38 37 35 34 34 32 29 30 28 27 33 35 44 62
50 50 50 50 50 52 56 60 63 73 85 89 90 92 92 89 87 85 87 94 99 98 93 88 82 78 76 75 72 70 67 64 61 57 53 49 46 44 45 48 50 52 52 52 53 53 53 52 50 49 49 48 46 45 44 44 45 46 45 45 44 43 44 43 43 41 39 38 37 37 39 39 37 36 33 32 34 31 29 29 27 29 34 38 47
51 49 48 48 47 46 48 52 53 62 77 88 93 96 96 94 93 94 98 101 101 98 97 92 86 81 79 76 72 69 65 60 56 53 50 47 44 43 43 46 49 51 52 52 52 51 51 51 51 51 50 50 49 47 47 45 45 47 48 47 46 46 45 45 45 44 41 39 37 35 36 37 36 36 34 31 32 32 29 28 27 27 30 37 43
44 43 42 43 44 43 46 52 55 62 76 89 97 100 101 101 100 101 102 102 100 100 98 92 85 83 80 76 73 69 62 57 54 50 46 44 43 43 45 47 49 50 50 50 49 48 48 47 48 48 48 47 47 45 44 43 42 44 44 44 44 44 45 45 43 43 41 38 37 35 33 34 33 32 33 31 30 31 31 27 26 27 28 33 42
42 42 43 46 49 51 52 53 56 64 74 84 91 96 98 98 98 99 99 98 97 96 93 89 86 85 82 77 72 66 59 55 52 48 45 45 45 46 48 49 48 47 46 46 45 44 45 46 46 47 47 45 44 43 43 43 43 43 42 41 41 39 39 40 39 38 38 36 35 34 32 32 32 30 29 29 28 28 30 28 26 26 26 30 39
46 47 50 51 55 64 68 66 63 62 64 71 80 85 88 88 89 91 91 91 92 92 93 93 91 88 83 75 67 61 57 52 49 48 47 47 47 48 48 47 46 45 45 45 47 47 49 49 48 47 46 45 45 45 45 44 43 42 41 39 38 36 33 33 32 32 31 31 30 30 29 29 29 29 27 26 27 27 28 28 26 26 26 27 36
66 65 69 70 71 77 80 77 72 67 66 73 77 79 81 82 84 87 90 93 95 96 98 96 92 86 78 69 62 57 53 50 48 48 49 49 49 49 49 48 48 48 49 50 52 53 52 50 48 47 46 45 45 45 44 44 41 40 38 35 32 29 26 24 22 21 20 21 21 20 21 21 21 24 24 22 23 24 25 27 25 25 26 25 31
94 92 93 95 95 94 94 92 89 86 88 91 90 89 90 91 92 94 97 98 97 97 97 93 88 82 73 65 58 53 50 50 50 52 51 50 50 50 51 52 52 52 55 56 57 55 53 50 49 49 47 45 45 44 43 42 40 37 33 29 25 22 20 18 16 15 14 14 15 14 15 15 15 15 17 16 18 20 22 26 25 23 26 26 27
102 101 100 100 101 101 103 104 101 100 100 100 100 101 102 101 100 98 96 95 94 94 93 89 83 75 67 59 54 53 54 56 56 55 53 51 52 54 55 55 57 59 60 59 57 55 53 51 50 48 46 45 44 44 42 39 35 30 25 23 22 20 19 18 16 16 16 14 14 13 12 13 12 11 12 11 12 14 17 22 25 22 24 26 25
101 101 100 100 101 99 99 101 101 100 100 101 103 103 98 94 91 88 86 86 88 89 87 81 74 67 60 55 53 54 56 57 56 56 56 56 58 58 58 59 62 63 61 58 55 55 54 52 49 47 46 45 43 41 38 32 26 24 22 21 22 21 19 18 16 15 15 14 13 13 12 12 12 11 12 11 9 10 12 16 22 22 22 26 26
101 101 101 101 98 92 91 96 101 101 101 103 104 99 91 85 83 83 82 81 82 80 77 73 67 61 56 51 48 50 53 56 59 61 62 62 61 60 62 64 64 61 58 56 56 56 53 49 47 46 45 44 41 35 29 26 24 24 23 22 20 18 16 14 13 12 12 11 11 12 11 10 11 11 11 12 10 9 9 10 16 21 21 25 27
101 101 98 93 86 80 81 91 96 96 95 96 97 95 90 86 84 82 80 79 78 75 71 66 60 54 50 47 47 52 59 64 67 67 66 64 63 64 64 62 60 57 56 58 58 55 51 47 46 46 45 40 34 29 25 25 25 24 22 19 16 15 13 12 11 10 9 9 9 9 10 10 10 9 9 10 11 10 10 9 11 17 21 25 29
100 100 93 83 75 71 72 77 80 82 84 88 94 97 96 94 91 87 84 83 79 73 65 59 54 51 50 52 58 65 69 70 69 68 65 64 64 63 60 59 59 60 61 60 56 51 48 47 46 44 40 33 28 27 27 26 24 20 18 17 15 14 12 10 10 9 8 8 7 7 8 8 9 9 7 9 11 11 12 11 8 13 19 23 29
101 101 93 79 72 73 77 82 87 91 94 96 98 100 102 103 101 97 93 89 81 70 62 57 55 54 55 61 67 71 72 71 68 66 64 63 61 59 60 63 65 66 62 56 52 49 48 49 47 41 34 30 28 28 26 23 20 18 18 17 15 14 12 10 10 10 9 9 7 6 7 7 7 9 8 8 10 10 12 12 9 11 16 21 28
102 97 87 76 72 80 90 97 100 99 97 95 94 95 99 102 101 95 90 85 75 66 60 58 57 58 62 69 73 74 73 70 67 65 63 60 60 61 66 69 67 62 58 53 51 52 51 48 43 35 31 30 30 28 24 20 19 19 18 16 14 14 14 12 11 11 9 9 8 7 7 7 6 8 8 8 9 9 10 12 11 11 14 19 26
100 93 89 86 86 90 97 101 100 97 95 94 94 96 98 96 92 86 79 72 66 62 62 61 60 63 70 76 78 76 73 70 67 64 61 60 63 66 67 66 61 56 54 53 53 54 50 43 36 32 33 33 29 24 21 20 20 18 17 18 16 14 14 12 12 12 10 9 9 7 7 8 7 8 9 8 9 9 10 12 13 13 14 16 23
102 98 97 98 100 101 102 102 101 98 96 94 91 88 85 81 76 71 65 62 63 65 66 65 66 72 77 80 79 76 73 69 64 62 62 64 66 66 64 61 57 55 55 56 56 51 43 36 34 34 34 30 25 23 22 20 20 19 19 20 19 16 14 13 13 12 10 9 9 7 7 8 7 7 8 8 8 9 9 11 13 14 15 16 20
96 92 89 91 95 96 93 89 85 81 78 77 75 72 70 68 65 63 62 63 66 69 70 71 74 79 80 78 78 75 70 66 64 65 67 68 66 64 61 59 58 58 59 56 50 42 37 35 36 34 30 25 23 23 22 20 20 21 22 23 22 19 15 14 13 12 11 9 9 8 7 8 7 8 9 9 9 9 9 11 13 15 17 17 18
81 79 77 77 79 79 75 72 72 72 72 73 71 70 68 66 65 65 65 68 72 76 78 80 80 80 79 77 75 71 67 67 69 70 70 68 65 63 62 61 62 61 56 48 40 37 37 37 35 30 26 25 24 22 21 21 22 24 24 23 23 20 17 14 13 13 12 10 9 8 8 7 7 8 8 9 10 10 10 11 13 15 17 18 18
82 81 81 80 78 77 77 78 81 82 81 78 75 73 71 70 70 71 72 77 83 85 84 83 81 80 79 75 71 69 70 72 73 71 69 67 67 67 66 65 62 54 46 39 37 38 38 35 30 27 25 25 24 23 24 25 25 25 24 23 23 22 18 16 15 13 12 11 10 9 8 8 8 8 8 9 10 11 11 11 13 15 18 20 20
88 87 86 83 81 83 87 90 91 88 84 81 79 78 77 75 75 77 82 87 90 89 87 85 83 79 74 70 70 73 74 74 73 72 72 72 71 69 66 60 52 43 38 37 38 38 35 29 26 26 25 25 25 26 27 28 26 25 24 23 24 23 19 17 16 15 14 12 10 10 9 9 9 9 9 10 10 11 12 12 13 16 18 22 23
88 87 86 86 89 94 97 95 93 88 84 84 84 82 81 80 81 86 91 94 94 92 88 83 77 72 70 71 74 74 74 75 76 77 77 74 70 65 58 50 42 37 37 40 38 34 29 27 27 27 26 26 27 29 29 28 26 26 26 25 25 24 21 18 16 15 15 13 11 11 10 9 10 10 10 11 11 12 13 14 14 16 18 22 25
90 91 93 96 99 100 97 92 90 89 89 89 88 87 86 87 90 94 97 98 96 90 82 74 70 70 72 74 75 76 78 81 81 78 74 69 62 56 47 40 37 38 40 38 33 28 27 28 28 28 28 30 31 31 30 29 28 28 28 28 27 26 24 21 18 17 16 14 13 12 11 10 11 11 11 12 12 12 13 15 16 17 18 22 25
99 101 102 103 103 100 96 94 93 93 93 92 91 91 92 92 95 100 101 98 90 80 73 71 71 73 75 76 79 83 85 82 77 72 67 60 53 46 40 37 40 41 38 33 28 28 29 29 30 31 33 34 34 34 32 31 31 31 31 31 29 28 26 23 20 18 18 17 15 13 13 12 12 12 12 13 14 14 14 15 17 18 19 23 27
105 106 106 105 103 102 101 100 98 95 94 95 95 96 97 97 101 103 98 88 79 74 72 74 76 77 79 82 85 85 81 76 71 65 58 51 44 39 39 42 43 39 33 29 29 30 30 31 34 36 37 37 37 36 36 35 34 33 33 32 31 30 28 26 22 19 19 18 17 15 14 14 13 13 13 14 15 16 15 15 17 18 19 22 27
109 111 110 106 103 103 102 99 93 90 92 97 100 100 101 102 103 97 87 78 75 76 78 80 81 81 83 85 84 79 74 69 64 57 50 44 40 40 43 44 40 33 29 30 31 32 34 36 38 39 39 38 38 38 39 40 39 37 35 34 33 32 31 30 28 24 21 20 20 18 16 16 16 15 14 15 16 17 18 18 18 18 19 21 25
109 110 107 104 102 98 91 84 83 88 95 102 105 104 103 101 95 85 77 76 78 82 84 84 81 80 80 80 77 73 69 64 57 50 45 41 41 45 46 41 34 30 31 32 34 36 38 40 40 40 40 40 40 42 44 44 43 41 38 36 35 33 32 31 31 28 25 22 22 21 19 17 17 17 16 16 17 17 19 20 20 20 20 21 22
111 109 103 96 89 81 77 80 89 96 101 104 105 103 98 92 84 79 80 83 86 86 84 80 78 78 77 75 73 69 64 57 51 46 43 43 46 47 42 35 31 32 34 36 38 40 41 42 42 42 42 41 43 46 47 47 46 45 42 39 37 35 33 32 31 31 29 26 23 23 22 20 18 18 18 17 18 19 19 21 22 23 23 23 22
103 94 86 79 76 78 86 95 101 102 103 105 102 95 88 82 81 84 88 90 87 82 77 75 77 78 75 73 70 65 58 52 48 45 45 48 49 44 35 32 33 35 37 39 41 43 44 44 45 45 44 46 48 50 51 51 50 48 46 43 41 38 36 34 32 31 31 30 27 25 24 23 21 20 20 19 19 19 20 21 22 23 24 25 25
84 80 80 83 89 95 100 103 104 104 104 101 92 84 83 86 89 91 90 85 79 75 75 76 78 77 75 73 68 61 55 51 47 46 49 50 45 37 32 34 36 38 41 43 45 46 46 46 46 46 48 51 54 55 55 54 52 51 50 48 46 44 41 38 36 33 33 33 32 29 27 25 24 23 22 22 21 20 20 21 22 23 25 26 26
86 91 94 97 100 101 102 105 106 103 97 90 85 87 92 94 92 87 80 74 71 72 75 77 77 77 76 72 64 57 53 49 47 50 52 47 38 33 34 37 39 42 45 47 47 48 48 47 47 48 49 52 55 57 57 56 54 53 51 50 49 49 47 44 42 39 35 34 35 34 31 29 27 26 25 24 23 22 21 21 21 23 24 25 27
99 101 100 100 102 104 107 106 101 93 89 89 92 95 95 90 83 77 72 70 71 74 76 77 78 79 75 68 61 57 53 49 50 54 50 41 35 35 38 41 44 46 48 49 49 49 50 51 52 53 53 53 54 55 57 59 57 54 52 51 50 49 48 48 46 43 39 36 35 36 36 34 31 29 28 27 26 26 25 23 22 22 23 24 25
100 100 100 104 108 109 105 97 92 91 94 96 95 92 87 81 75 72 71 71 74 78 79 81 82 79 72 65 60 56 52 52 56 54 45 37 36 40 43 45 48 49 49 49 50 51 52 54 56 58 59 58 57 56 58 59 59 56 53 52 50 49 48 47 47 46 45 41 37 35 36 37 37 35 32 31 30 29 28 27 26 24 24 24 25
101 103 105 106 105 100 95 91 92 96 98 95 90 85 80 76 73 72 74 76 79 82 85 85 83 77 69 64 60 55 53 57 58 50 40 37 40 44 47 48 50 50 50 50 51 53 55 57 59 61 63 64 63 62 61 60 59 57 54 52 51 50 48 47 47 47 47 46 43 39 36 36 38 39 38 36 35 34 33 32 31 30 28 26 26
105 105 103 99 94 90 90 92 95 95 92 88 84 80 78 76 76 77 79 82 84 87 88 86 81 75 68 63 59 56 57 60 56 45 39 41 45 48 50 52 52 52 52 53 53 54 56 57 59 62 64 65 65 65 64 61 59 57 54 53 51 50 50 49 49 48 48 48 47 44 40 37 37 38 39 39 39 39 39 38 37 37 36 34 32
102 99 93 88 85 86 88 89 89 88 86 84 83 82 81 80 80 83 86 87 87 89 88 84 79 73 67 63 59 59 62 62 53 42 41 46 50 51 53 54 54 55 55 56 56 56 57 58 60 62 63 64 65 65 63 61 59 57 55 53 51 49 50 50 49 49 50 50 50 49 46 42 40 38 38 39 40 40 41 41 41 41 41 40 40
89 87 84 83 85 86 85 85 85 85 86 86 86 85 84 84 86 90 90 89 88 88 86 83 78 71 66 62 61 63 65 60 48 43 46 52 54 55 56 57 57 57 58 58 57 57 58 60 61 63 64 64 64 62 60 58 57 56 55 53 51 49 49 49 49 50 51 52 53 54 52 49 45 43 42 41 41 41 41 41 42 43 43 43 43
85 84 84 85 86 85 85 87 88 89 90 91 90 88 87 89 92 92 90 89 90 88 84 81 77 70 66 64 63 66 66 57 46 45 51 55 56 57 59 59 58 59 59 59 60 60 61 62 62 63 64 64 63 61 59 56 55 54 53 52 52 50 49 48 48 50 51 52 54 57 57 56 53 50 48 46 46 45 44 43 42 43 44 44 44
87 85 84 86 87 87 90 93 95 96 96 95 92 91 91 93 93 93 91 91 89 86 83 80 75 70 67 66 66 68 64 53 45 49 55 57 58 59 59 59 59 59 60 61 62 63 65 66 66 66 65 63 61 59 57 55 54 52 51 51 51 51 50 49 48 48 50 52 54 57 60 62 62 60 58 56 54 52 50 49 47 46 45 45 45
86 85 87 89 92 94 96 99 100 100 99 96 94 94 95 95 94 94 93 92 88 84 82 79 73 70 70 69 69 70 62 50 46 53 58 58 59 61 60 59 60 61 62 64 65 66 66 68 67 66 63 61 60 58 56 55 54 53 51 50 49 49 50 50 49 49 48 49 52 55 60 64 66 67 67 66 65 63 61 58 55 53 51 49 48
93 94 96 98 99 99 100 101 102 101 99 98 98 98 98 97 96 94 93 90 86 83 80 76 73 73 72 71 72 71 60 48 49 57 60 61 63 64 62 61 62 62 64 67 69 69 68 66 64 62 60 58 57 57 56 56 56 55 55 53 52 51 50 49 49 50 49 49 50 52 55 60 66 70 72 73 73 74 73 70 66 63 60 57 56
99 100 102 103 103 102 102 103 103 101 100 100 100 99 99 97 94 92 91 90 86 82 78 75 75 75 74 74 75 70 56 49 54 61 61 63 66 65 64 65 67 67 68 68 67 67 65 63 61 59 57 56 55 55 55 55 55 56 57 57 56 55 54 52 51 51 50 50 50 51 52 55 59 65 70 74 76 78 79 79 78 75 72 69 66
101 101 103 104 105 105 104 103 102 101 102 102 101 100 99 95 92 92 93 91 87 81 77 76 77 78 76 77 76 67 53 51 59 63 63 65 68 67 67 70 71 71 70 67 64 62 60 59 59 59 57 56 56 57 57 57 56 56 58 58 58 57 58 57 55 54 53 52 52 52 52 53 54 56 61 67 71 75 78 80 81 81 80 78 76
103 102 104 106 107 105 104 102 100 101 102 102 100 99 97 94 94 96 96 92 86 81 77 77 80 80 79 79 75 62 52 54 62 64 64 67 69 69 70 71 69 67 66 64 62 61 60 58 58 60 60 61 61 60 59 60 59 59 60 61 60 59 59 59 58 58 57 56 54 53 53 54 54 54 55 58 62 67 71 75 78 81 81 80 79
101 104 108 109 106 103 101 102 102 102 102 101 99 99 98 96 97 97 95 90 85 80 77 79 82 82 81 80 72 58 51 57 64 64 64 68 70 71 71 68 64 61 59 57 57 59 60 60 60 61 61 62 62 61 60 60 60 61 63 64 64 64 63 62 62 61 61 61 59 57 55 55 56 55 55 55 56 59 62 66 70 75 77 78 79
Wind_Speed
63 64 65 64 64 64 64 64 63 62 62 61 60 59 58 58 59 59 59 58 58 58 57 57 57 59 60 61 62 62 63 64 66 68 69 70 70 70 69 69 69 70 69 68 67 65 62 60 58 58 57 57 57 57 57 58 57 57 56 55 55 54 51 50 48 48 52 53 52 53 55 54 52 50 49 48 48 49 52 55 53 49 48 49 52
62 64 66 66 66 65 65 65 64 63 63 61 60 59 58 58 57 57 57 57 57 57 58 59 60 62 63 64 65 65 66 67 68 70 71 71 71 71 70 70 70 70 69 68 67 64 62 61 60 59 59 59 59 59 59 60 60 59 59 58 58 57 55 53 52 51 52 56 56 55 56 56 55 54 53 51 51 50 51 54 55 51 49 50 50
61 61 63 64 65 65 65 64 63 62 61 59 58 57 56 56 56 57 58 59 60 61 63 64 65 66 66 65 66 66 68 69 71 72 72 72 72 72 71 71 70 70 69 68 66 63 62 61 61 61 61 61 61 61 61 62 62 62 62 62 61 61 60 57 55 54 54 56 58 57 57 58 57 57 57 55 53 52 52 54 56 54 52 51 50
64 63 62 63 64 65 65 65 64 63 62 61 60 60 60 60 60 61 63 64 65 66 66 66 66 65 64 65 67 69 71 72 73 73 73 72 72 71 71 70 70 69 68 66 64 62 62 62 62 62 63 63 63 63 63 64 64 64 64 64 64 63 63 62 59 57 55 56 58 59 58 58 59 59 59 59 57 55 53 54 57 57 56 54 52
68 67 67 66 66 66 67 67 67 67 67 66 66 66 66 65 66 66 66 67 67 66 65 64 63 64 65 68 71 73 73 74 73 73 71 71 71 70 70 69 69 67 66 64 63 62 62 62 63 63 64 64 64 64 65 65 65 65 64 65 65 64 64 64 62 61 59 57 58 60 60 59 59 60 61 61 60 58 56 56 58 59 58 56 53
69 69 69 69 68 68 67 67 67 68 68 68 68 68 67 67 67 66 66 66 65 65 65 65 66 68 70 73 74 74 73 73 72 71 70 70 70 69 69 68 68 66 64 63 62 62 63 63 64 65 65 65 66 65 66 66 66 66 65 65 65 65 64 65 64 63 62 61 60 61 62 61 60 61 63 63 61 61 59 58 59 60 60 57 55
69 69 69 69 69 68 67 66 66 66 66 66 65 65 65 65 64 64 65 65 66 66 67 68 70 71 73 74 73 73 72 71 70 70 70 69 68 67 67 67 67 66 64 63 63 64 65 65 66 67 67 67 67 67 66 67 67 67 66 66 66 66 65 65 65 64 63 63 63 64 65 65 63 62 64 64 63 62 62 59 60 61 61 60 58
67 67 68 68 69 68 66 66 66 64 63 64 63 63 64 64 64 64 65 65 66 67 68 69 70 71 73 73 73 72 71 70 70 70 70 68 67 67 67 67 67 66 65 65 65 66 67 68 69 70 70 70 69 68 67 66 67 67 67 67 67 67 67 67 67 67 66 65 65 66 66 67 67 65 65 65 64 64 64 61 60 62 63 62 60
63 63 64 64 65 65 64 63 63 61 61 62 62 62 63 63 63 63 63 65 66 67 68 69 71 72 74 74 72 71 70 70 71 71 70 69 68 68 68 68 68 67 67 67 68 69 69 70 71 71 72 71 70 70 68 67 66 66 67 68 68 69 69 69 69 69 69 68 67 67 67 68 69 68 67 66 65 65 66 63 60 62 65 64 62
60 60 59 59 59 59 58 58 58 58 58 59 60 61 62 63 63 64 66 67 68 69 70 71 73 74 75 74 72 71 71 72 72 72 71 70 69 69 69 69 69 69 69 70 70 71 71 71 71 71 71 71 71 70 69 68 67 66 66 66 67 68 68 69 70 70 70 70 70 69 69 69 70 70 68 68 67 66 66 65 62 62 66 66 64
56 55 55 55 55 55 55 55 56 57 58 59 61 63 64 66 67 68 69 70 70 71 72 73 74 75 75 74 72 72 73 73 73 72 71 70 69 70 70 71 71 71 72 73 73 73 73 72 72 71 71 70 70 70 70 69 69 68 68 67 66 66 67 67 68 69 70 70 70 71 70 70 70 71 69 68 68 66 66 67 64 63 65 68 67
51 50 50 50 50 51 52 53 54 56 57 59 61 63 66 67 68 69 70 70 71 72 73 73 73 74 74 74 74 74 74 73 73 72 71 70 71 71 72 73 74 74 74 75 75 75 75 75 74 72 71 70 70 70 70 70 69 69 69 69 69 69 69 69 69 69 70 71 72 72 72 72 72 72 71 69 67 67 67 67 66 64 65 68 70
47 47 46 47 47 48 50 51 53 54 55 57 59 61 63 65 66 68 68 69 70 70 70 71 72 73 74 74 74 74 74 73 73 72 71 72 73 74 75 75 75 76 77 77 77 77 77 76 75 73 72 71 70 70 70 70 70 71 72 72 73 73 73 72 71 70 70 69 70 72 73 73 73 73 73 70 67 66 66 67 67 66 65 68 72
46 46 46 47 47 47 48 49 50 52 53 55 57 59 61 63 64 65 66 67 68 69 70 71 71 72 73 74 74 74 74 74 73 73 73 73 75 75 76 77 77 78 78 79 79 80 79 77 76 74 73 72 71 71 71 71 72 74 75 76 76 75 74 72 71 69 67 66 66 66 68 70 70 71 72 70 67 65 65 66 67 66 66 68 73
48 49 50 51 50 49 49 49 50 51 53 55 57 60 62 63 64 66 67 68 69 70 71 71 72 73 73 74 75 74 74 74 73 74 75 76 76 77 78 79 79 80 81 81 82 81 79 77 76 75 74 73 72 72 73 74 75 75 75 74 73 72 71 69 67 65 64 63 62 62 62 63 64 65 66 67 66 64 63 64 66 66 65 67 72
49 50 52 52 52 52 53 53 53 54 55 57 60 62 64 65 66 67 69 70 71 72 73 73 74 74 75 75 75 74 74 74 75 75 76 77 78 78 80 80 81 82 83 83 83 81 79 77 76 75 74 74 74 75 76 76 75 73 71 70 68 67 66 65 63 61 60 59 58 59 60 59 59 58 59 61 62 61 61 62 65 65 63 66 71
51 52 52 52 52 54 55 56 56 57 59 61 63 66 67 68 69 70 71 72 73 73 74 75 75 76 76 76 75 75 75 75 76 77 77 78 79 80 81 82 84 84 84 83 82 80 78 77 76 75 75 76 76 77 76 74 72 70 68 66 64 63 62 60 59 57 54 52 52 54 56 56 55 54 55 56 56 57 57 59 62 63 62 65 71
51 51 52 52 53 54 55 56 58 60 62 64 67 69 70 71 71 72 72 73 74 75 76 77 77 77 77 77 76 75 75 75 76 77 78 79 81 82 83 85 85 85 83 81 80 79 78 77 76 76 77 78 78 77 74 72 69 67 65 62 60 58 57 55 54 52 50 47 46 47 48 50 52 52 51 50 50 52 53 55 58 60 61 65 70
49 49 51 53 54 55 56 58 60 63 65 66 68 70 72 73 73 74 74 75 76 77 78 78 78 77 76 75 75 74 75 75 76 77 79 81 82 84 85 85 84 82 80 79 79 78 77 77 77 78 79 79 77 75 72 69 66 63 61 59 57 56 54 52 50 49 48 45 41 40 41 43 46 48 47 45 45 47 51 53 54 57 61 65 69
54 53 54 56 57 58 59 61 63 64 65 67 68 70 72 73 75 75 76 77 77 78 79 78 76 75 74 74 74 74 75 76 77 79 81 83 84 85 84 83 81 79 79 78 78 78 77 78 80 81 81 79 76 73 69 66 63 60 58 57 55 54 53 52 49 48 47 45 41 38 36 37 39 41 42 41 41 44 48 52 52 53 59 65 69
60 60 60 61 61 61 62 64 65 66 67 69 71 73 74 75 77 77 77 78 78 78 77 76 74 74 74 73 74 75 76 77 78 80 82 84 84 83 81 79 78 78 78 78 78 78 79 81 82 82 79 76 73 70 66 63 60 58 56 55 54 52 51 50 48 46 45 43 41 38 34 33 33 35 37 38 39 41 45 50 50 51 57 64 68
62 62 62 62 62 63 64 65 67 68 70 72 74 75 77 77 78 78 78 79 78 77 75 74 73 73 73 74 74 76 77 78 80 82 83 82 80 79 77 77 77 77 77 77 78 80 82 83 82 79 76 73 70 66 63 61 58 56 54 54 53 52 49 47 46 45 43 41 39 36 33 31 30 30 33 36 37 38 41 46 48 50 54 61 67
62 62 62 63 64 65 66 67 69 71 73 74 76 76 77 77 77 77 78 77 76 74 73 72 72 72 73 74 75 76 78 79 81 81 80 78 77 76 76 76 76 76 77 78 80 82 83 81 79 75 72 69 66 63 61 58 56 54 53 52 53 52 49 46 44 43 42 40 37 34 31 29 28 28 29 32 34 35 38 42 46 49 51 57 65
64 64 65 66 67 69 70 71 73 74 74 75 75 75 75 76 76 76 75 73 72 71 70 71 71 72 73 74 75 77 79 80 80 78 76 75 75 75 75 76 76 76 77 79 81 82 80 77 74 71 68 65 62 60 57 55 53 52 51 50 51 51 49 45 42 40 39 38 35 32 30 28 26 26 27 29 31 32 35 39 44 48 50 54 62
65 66 66 67 68 70 71 72 73 73 73 73 73 73 73 73 73 72 70 69 68 68 69 70 71 72 73 74 76 77 78 77 76 74 73 73 74 74 75 76 76 77 79 81 80 78 75 72 69 66 64 62 59 57 55 53 51 50 48 47 47 48 47 44 40 37 36 34 33 30 28 27 25 25 25 26 28 30 33 37 41 46 49 53 59
65 66 66 67 68 69 70 70 71 71 71 71 71 71 70 70 69 67 66 66 66 67 68 69 70 72 73 75 76 76 75 73 71 71 71 72 74 74 75 76 77 79 80 79 76 73 71 68 65 62 60 58 56 54 53 51 49 47 45 43 43 43 43 41 38 35 33 31 30 28 26 25 25 24 24 24 26 28 31 34 38 42 47 51 56
65 65 66 67 67 68 68 69 69 69 69 69 69 68 67 66 65 65 64 65 66 67 68 69 71 72 73 74 73 72 70 69 69 70 71 73 74 74 76 77 79 79 77 75 72 69 66 63 61 58 56 54 53 52 50 49 46 44 42 40 40 40 40 37 35 32 30 28 27 25 24 23 23 22 22 23 25 27 29 32 36 41 45 49 55
64 65 66 66 67 67 67 68 68 68 68 67 67 65 65 64 63 63 64 65 66 67 68 70 71 72 71 70 68 67 66 67 69 70 72 73 74 75 77 78 78 76 73 70 67 64 62 59 57 55 54 52 51 49 48 46 44 42 40 39 38 38 38 36 33 30 27 25 24 24 22 22 21 20 21 22 24 26 28 30 35 40 45 50 55
64 65 65 65 66 66 67 67 67 67 66 65 64 63 63 62 62 63 64 65 66 68 69 70 70 68 66 65 64 65 66 68 70 71 72 73 74 76 77 76 74 72 69 66 63 60 58 56 54 52 51 50 49 47 46 44 42 40 39 38 37 36 36 35 32 29 26 24 22 22 21 20 20 19 19 20 22 25 27 30 34 38 42 48 53
64 65 65 65 66 67 67 66 66 65 64 63 63 62 62 61 62 63 64 65 67 68 68 67 65 63 62 63 64 66 68 69 70 71 72 74 75 76 75 73 71 68 65 62 59 57 54 52 51 49 48 47 46 45 44 42 41 39 37 36 35 35 34 33 31 28 25 22 21 20 20 19 19 19 19 20 21 24 27 30 34 37 40 45 51
64 64 65 66 66 66 65 65 64 63 63 62 61 61 61 61 62 63 64 65 66 65 64 62 61 61 62 64 66 67 68 69 70 71 73 75 75 74 72 70 68 65 62 59 56 53 51 49 48 46 45 44 43 42 42 41 40 38 37 35 34 33 33 33 31 28 25 22 20 19 19 18 18 18 18 19 20 23 26 29 33 37 40 44 49
64 65 65 66 65 65 64 64 63 61 60 59 59 59 60 61 62 63 64 64 62 61 59 59 60 62 64 65 66 66 67 68 70 72 74 74 73 71 69 67 64 61 58 55 53 51 49 47 45 43 42 41 40 39 39 39 39 38 37 35 34 33 32 31 31 29 27 23 21 19 18 18 18 18 18 19 20 22 25 28 32 36 40 44 48
65 65 65 65 64 63 62 61 59 58 57 57 58 59 59 60 61 62 61 60 58 57 58 60 62 63 64 64 64 65 67 69 71 73 73 72 71 69 66 63 60 57 55 52 50 48 46 44 42 41 39 38 38 37 37 38 38 38 37 36 35 33 31 29 28 28 27 24 22 20 19 18 17 18 18 18 20 22 24 27 31 35 39 43 47
65 65 64 63 62 60 58 57 56 55 56 56 57 58 59 59 59 58 57 56 56 58 59 61 62 62 62 63 64 66 68 70 72 72 72 70 68 66 63 60 57 54 52 50 47 45 43 41 40 39 38 37 36 35 36 37 37 38 38 37 35 34 32 30 28 27 26 25 23 20 19 18 18 18 18 18 19 21 24 27 30 33 37 41 46
63 62 60 58 56 54 53 53 53 54 55 56 57 57 57 57 56 55 55 56 57 59 60 61 61 61 61 63 65 67 70 71 72 71 70 68 65 62 59 56 54 51 49 47 45 43 41 39 38 37 36 35 35 35 35 36 37 37 38 38 37 36 34 32 30 27 26 25 23 22 20 19 18 18 18 19 19 21 23 26 29 32 36 39 43
57 55 53 51 51 51 51 52 53 54 55 56 56 55 54 54 53 54 55 57 58 59 60 59 59 60 62 64 66 69 71 71 71 70 68 65 62 59 56 53 51 49 47 45 43 41 39 37 36 35 34 33 33 34 35 35 36 36 37 37 37 37 35 34 32 29 27 25 23 22 21 20 19 19 19 19 20 20 22 24 27 30 34 37 41
49 48 48 49 50 51 52 52 53 54 54 54 53 52 52 52 53 54 55 57 58 59 59 58 59 60 63 65 68 70 71 71 70 68 65 62 59 56 53 51 49 47 44 42 41 39 37 36 35 34 33 32 32 32 34 35 35 35 35 36 36 36 36 35 33 31 28 26 23 22 21 20 20 19 19 19 20 21 22 23 25 28 31 35 38
46 47 48 49 50 51 52 53 53 52 52 51 51 50 51 52 53 54 56 58 58 58 58 58 60 62 64 67 69 70 70 70 68 65 62 59 56 53 51 49 46 44 42 40 38 37 35 35 34 34 33 33 32 32 32 34 34 35 35 35 35 35 34 34 34 32 30 27 24 22 21 20 20 20 20 20 20 21 22 23 25 26 28 31 34
47 48 49 50 51 51 52 52 51 51 50 50 50 51 52 53 54 55 57 58 58 58 58 59 61 63 66 68 69 70 69 68 66 63 60 57 54 51 49 47 44 42 40 38 36 35 34 33 32 33 33 34 34 33 33 33 34 35 35 36 36 36 35 34 34 33 32 30 27 24 21 19 19 19 20 20 21 21 22 23 24 26 27 29 31
48 49 50 50 51 51 51 50 50 49 50 50 51 52 53 54 55 57 58 58 58 58 59 60 63 65 67 68 69 69 68 66 63 60 57 54 51 49 47 45 43 41 39 37 35 33 32 31 31 31 32 33 34 34 34 34 34 34 35 35 36 36 36 35 35 34 33 32 30 27 24 21 18 18 18 19 20 21 22 23 24 26 27 29 31
49 49 49 50 50 50 49 49 48 49 50 51 52 53 54 55 56 58 58 58 57 58 60 62 64 66 68 69 69 68 66 64 61 58 54 52 49 47 45 44 42 40 38 36 34 32 31 30 30 30 31 32 33 34 34 35 35 35 35 35 35 35 35 36 35 35 34 33 31 30 27 24 21 18 17 17 18 20 21 22 24 25 27 29 31
49 49 49 49 49 48 48 48 48 49 50 51 53 54 55 56 58 58 58 57 58 59 61 63 65 67 68 69 69 67 64 62 59 55 52 50 48 46 44 43 41 39 37 35 33 32 31 30 30 30 31 32 32 33 33 34 35 36 36 35 35 34 34 34 35 35 34 34 33 32 30 28 25 22 20 18 17 18 19 21 23 24 26 28 29
49 49 49 49 48 48 48 48 49 50 51 53 54 55 56 58 58 58 58 58 59 61 62 64 66 68 68 68 67 65 63 59 56 53 50 48 46 45 43 42 40 37 36 34 33 32 31 31 31 31 32 33 33 34 34 34 34 35 36 36 36 35 34 33 34 34 34 34 33 33 32 30 28 26 24 22 20 19 19 20 22 23 25 27 28
50 49 49 49 49 49 49 50 51 52 53 55 56 57 58 58 58 58 58 59 61 62 63 65 67 68 69 68 66 63 60 57 54 51 48 46 44 43 42 40 38 36 35 34 33 33 32 32 33 33 33 34 35 35 35 35 35 35 34 35 36 36 35 34 34 33 33 33 33 32 32 31 30 29 27 26 24 23 22 21 22 22 24 25 27
51 51 50 50 50 51 51 52 53 54 55 57 58 59 59 58 58 58 59 61 62 63 65 66 67 69 69 68 65 62 58 55 52 49 46 44 43 41 40 38 36 35 34 34 34 33 34 34 35 35 35 36 36 36 36 36 36 36 35 35 35 35 36 36 35 34 33 33 33 33 32 31 31 30 30 29 28 27 26 25 24 24 24 25 26
53 52 52 52 52 53 53 54 55 57 58 59 60 60 59 59 59 60 61 62 64 65 66 67 68 69 68 67 64 61 57 54 50 48 45 43 42 40 39 37 36 35 34 35 35 35 35 35 36 36 36 37 37 37 37 37 37 37 37 36 36 35 36 36 36 35 34 33 32 32 32 31 31 30 30 29 29 29 29 28 28 27 27 27 28
54 54 54 55 55 55 55 56 58 59 60 60 60 60 59 59 60 61 63 64 65 66 66 67 69 69 68 65 62 59 56 53 49 47 45 43 41 40 39 38 37 36 35 35 36 36 37 37 37 37 37 37 37 37 37 37 37 38 38 38 38 37 37 37 36 36 36 35 33 32 31 31 31 30 30 29 29 30 30 30 31 31 31 30 30
56 56 56 57 57 57 58 59 61 61 61 61 60 60 60 61 62 63 64 66 67 67 67 68 69 69 67 64 61 58 55 52 49 46 44 42 41 40 39 39 38 38 37 37 36 37 37 38 39 39 39 38 38 38 38 37 37 38 38 39 39 39 39 39 38 38 37 36 35 34 33 32 31 30 30 30 30 30 30 31 31 32 32 33 33
57 57 58 58 58 59 60 61 62 62 61 61 61 61 62 63 64 65 66 67 68 68 68 69 70 69 66 63 60 57 53 50 48 46 44 42 41 40 40 39 39 39 39 39 38 38 38 38 38 39 40 40 40 40 40 40 39 39 40 40 40 40 40 40 40 40 39 38 37 36 35 35 33 32 31 31 30 30 31 31 32 32 33 33 34
58 59 59 59 60 61 61 61 62 61 61 62 62 63 64 65 66 67 68 69 69 70 70 70 70 68 65 63 59 56 52 49 47 46 44 42 42 41 40 40 39 39 38 38 38 39 39 39 39 39 40 41 42 42 42 42 42 41 42 42 42 42 41 41 41 41 41 41 40 39 38 37 37 35 34 33 33 32 32 32 32 33 33 34 34
60 60 61 61 61 61 61 61 62 62 63 63 64 65 66 67 68 69 69 70 70 71 71 71 69 67 65 62 59 55 51 49 48 46 44 43 42 42 41 41 40 39 38 38 38 38 39 40 40 40 41 42 43 43 43 43 43 43 43 43 44 44 44 43 43 43 43 43 43 42 41 40 39 39 38 37 36 35 35 34 34 34 35 35 35
Wind_Direction
248 249 252 254 256 259 262 265 268 271 273 276 278 280 282 284 285 286 288 289 289 291 292 293 294 295 297 298 299 300 301 302 303 304 304 306 307 308 309 309 310 310 309 309 307 305 301 299 297 295 294 293 293 292 291 289 287 286 285 283 282 279 277 274 270 269 271 270 267 267 267 265 263 258 253 252 252 248 245 247 249 251 251 248 245
251 251 252 255 257 260 263 265 267 270 272 275 278 280 282 284 285 286 288 288 290 291 292 293 294 295 297 297 298 299 300 301 302 303 305 306 307 307 308 308 308 308 308 307 305 302 300 297 296 294 293 292 291 291 290 289 288 287 286 284 283 281 279 276 273 270 269 270 268 266 265 264 263 261 256 252 251 249 246 245 246 248 249 249 245
255 255 255 256 258 260 262 264 266 269 272 274 278 279 281 282 284 285 286 288 289 291 292 293 294 295 296 297 297 298 300 301 303 304 305 306 306 306 307 307 307 307 306 305 303 301 299 297 296 294 293 292 291 290 289 288 288 287 286 286 284 283 281 278 275 272 269 268 268 267 265 263 262 261 258 255 252 249 246 245 243 243 245 247 245
258 258 259 259 261 262 264 266 268 270 272 274 276 278 280 282 283 285 286 288 290 291 292 293 294 294 295 296 297 298 300 302 303 305 305 305 305 306 306 306 306 306 305 304 302 300 298 297 296 295 294 293 292 291 290 289 288 287 287 286 285 284 282 280 278 275 271 268 268 267 265 264 263 261 259 257 254 250 246 244 242 240 240 243 243
260 261 262 263 265 266 267 269 271 272 274 275 277 278 280 281 283 285 287 288 290 291 292 292 292 293 294 295 297 299 301 303 304 305 305 305 305 305 305 305 305 304 304 302 301 300 299 298 297 296 295 295 294 293 292 291 290 289 288 286 285 284 283 281 279 277 274 270 267 267 265 264 263 262 260 257 255 252 248 243 241 239 237 239 240
262 263 264 266 267 269 271 272 273 275 275 276 277 278 280 281 283 285 286 288 289 290 290 290 291 293 294 296 298 300 302 303 304 304 304 305 305 304 303 303 303 303 302 301 300 300 299 298 298 297 296 296 295 294 293 292 291 290 289 288 286 285 283 282 280 278 276 273 269 267 266 264 262 261 260 258 256 254 250 244 241 238 235 236 237
264 266 267 268 269 271 273 274 275 276 276 276 277 278 279 280 282 284 286 287 288 288 289 291 292 294 296 297 299 301 302 303 303 303 304 304 304 303 302 302 301 301 301 300 300 299 299 298 297 297 296 295 294 293 292 292 291 290 289 288 287 285 284 283 281 279 276 274 272 269 268 267 264 261 260 258 256 254 251 246 242 238 234 233 234
266 268 270 271 272 273 274 275 275 275 275 275 276 276 278 279 281 284 285 286 287 288 290 293 294 296 297 298 299 301 302 302 302 303 303 303 302 301 300 300 300 301 301 300 300 300 299 298 298 297 296 295 294 293 292 291 290 290 289 288 287 286 285 284 282 281 278 275 273 270 269 267 265 262 259 257 255 253 251 247 242 239 235 231 232
267 269 271 273 274 275 275 275 276 275 274 275 275 276 278 279 281 282 284 286 288 290 292 294 295 296 297 298 300 301 301 302 302 303 303 302 301 300 300 300 300 301 301 301 300 300 299 299 299 298 298 297 295 294 292 291 290 289 288 288 287 286 285 284 282 281 279 277 274 271 269 267 265 263 260 257 254 252 251 248 242 239 235 230 229
269 270 271 273 274 275 275 275 275 275 274 274 274 275 276 278 279 282 285 287 289 291 293 294 295 296 296 298 300 301 301 302 302 303 303 302 301 301 301 301 302 302 301 301 300 300 300 300 300 300 299 298 297 295 294 293 292 290 288 287 285 284 283 282 281 280 278 276 275 272 270 267 265 263 260 257 254 251 250 248 243 238 234 230 227
270 271 272 273 273 274 274 274 274 274 273 273 273 274 275 276 279 282 284 287 289 290 292 293 294 295 296 298 300 301 301 302 303 303 303 302 302 302 303 303 302 302 302 301 302 302 302 303 303 302 301 300 299 298 297 296 295 294 292 289 287 284 282 281 279 278 277 276 274 272 270 268 266 264 260 257 255 251 249 247 243 238 233 230 227
270 271 272 272 272 272 273 273 274 275 275 275 275 275 276 277 279 281 283 285 287 289 291 293 295 296 298 300 301 302 303 303 303 303 303 302 303 303 304 303 303 303 303 304 305 305 305 305 305 304 303 302 301 301 301 300 298 296 294 292 289 287 284 281 279 277 276 275 274 272 271 268 266 265 262 258 255 252 248 246 243 238 233 228 226
271 271 271 272 271 271 272 274 276 278 278 278 278 279 279 280 280 282 284 286 288 290 292 294 296 298 300 301 302 303 303 303 303 302 303 303 304 304 304 304 305 305 306 306 306 307 307 306 305 305 304 304 304 303 302 301 300 298 296 294 292 289 287 284 282 280 277 275 273 272 270 268 266 264 262 260 256 252 248 246 243 239 233 228 224
270 270 269 270 271 272 274 277 278 279 279 280 280 280 280 281 282 284 286 288 290 293 294 296 298 299 300 301 302 303 303 303 302 302 303 304 304 305 305 305 306 306 307 307 307 307 307 306 306 306 306 306 306 305 304 302 301 299 298 296 294 292 290 288 286 284 281 278 275 272 270 268 266 263 262 260 257 252 248 245 243 239 233 227 224
267 266 266 267 269 271 275 277 278 279 279 279 280 280 281 282 284 285 287 290 292 294 295 297 298 299 300 301 302 302 302 302 302 303 304 305 305 306 306 306 307 307 307 307 307 307 307 307 307 308 308 308 307 306 304 303 302 300 299 297 296 295 293 291 289 287 285 282 279 275 272 268 266 263 262 260 258 254 249 244 242 239 233 228 224
267 267 266 266 268 271 274 276 277 278 279 281 282 283 283 284 285 287 289 290 292 294 295 296 297 299 300 301 301 300 300 300 302 304 305 305 305 306 306 306 307 307 307 307 307 307 307 308 309 309 309 308 307 306 305 304 303 302 301 299 298 296 294 292 290 288 285 283 280 278 275 271 268 265 262 259 258 254 249 244 241 239 234 228 224
268 269 269 269 271 273 275 275 277 279 281 282 283 284 285 286 287 288 290 291 293 294 295 297 298 299 299 299 299 299 300 301 303 304 305 305 305 306 306 306 306 306 306 306 307 307 308 309 309 309 309 308 308 307 307 306 305 304 303 302 300 297 295 293 291 288 285 282 279 276 275 273 270 266 261 258 256 254 250 244 239 237 234 228 225
268 270 271 273 274 275 275 276 277 279 281 282 283 284 286 287 288 290 291 292 294 295 296 297 298 299 299 299 300 300 302 303 303 304 304 304 305 305 305 305 305 306 306 306 307 308 309 310 310 309 309 309 309 309 309 308 307 306 305 304 302 300 298 296 294 292 288 284 278 275 273 272 270 267 262 257 253 251 249 244 237 233 231 228 225
267 270 271 273 274 275 276 277 278 280 280 282 283 286 288 290 291 293 294 295 296 297 297 298 299 299 300 300 300 301 302 302 302 303 304 304 305 305 305 305 306 306 306 307 308 309 310 310 310 311 311 311 311 310 310 309 309 309 308 307 306 304 302 301 300 298 296 291 285 278 273 269 268 267 264 259 252 247 245 242 237 230 227 226 225
266 268 269 271 273 274 276 277 278 279 281 282 284 287 289 292 293 294 295 296 297 298 298 299 299 299 299 299 299 300 301 301 302 303 304 304 305 305 305 305 306 306 307 308 309 310 311 311 312 312 313 312 312 312 311 311 311 311 310 309 309 308 306 305 304 303 300 297 293 287 279 272 268 266 263 259 251 243 240 239 235 228 223 222 223
267 267 268 270 271 273 274 276 277 279 281 283 285 287 289 290 292 293 294 295 296 297 298 298 299 298 298 299 299 300 300 301 302 303 304 304 305 305 305 306 306 307 308 310 311 312 312 313 313 313 313 313 313 313 313 313 313 313 312 311 310 309 307 307 306 304 302 299 297 293 287 280 271 264 260 256 249 242 238 236 234 227 221 219 221
267 268 269 270 272 274 275 276 277 279 281 283 285 286 288 289 291 292 293 294 295 296 297 298 298 298 298 298 299 300 301 302 303 303 304 304 305 305 305 306 307 308 310 311 312 313 313 314 313 313 313 313 313 314 314 315 315 315 314 313 312 310 309 309 308 306 304 301 299 296 292 285 276 266 258 254 249 242 237 234 232 227 221 217 218
267 269 271 273 275 276 278 278 279 280 282 283 285 287 288 289 290 291 292 293 294 295 296 297 297 297 297 298 299 300 301 302 303 303 304 304 304 305 306 307 308 310 311 312 313 313 313 313 313 313 313 314 314 314 315 315 316 316 316 316 314 312 312 312 311 308 305 303 300 298 293 286 278 269 260 253 249 243 236 232 229 226 221 217 216
267 269 272 274 276 277 279 280 281 283 284 285 286 287 288 289 290 291 292 293 294 295 296 296 296 297 297 298 300 301 302 302 303 303 304 304 305 306 307 309 310 312 312 313 313 313 313 313 313 314 314 314 314 314 315 315 317 318 319 318 315 313 312 312 311 308 306 303 301 298 293 285 277 269 260 253 247 242 236 230 227 225 221 216 215
268 270 272 274 275 277 279 280 282 283 284 285 286 287 287 288 290 291 292 294 294 295 295 296 296 297 298 300 301 301 302 302 303 303 304 305 306 307 309 310 311 312 312 313 312 313 313 313 314 314 314 314 314 315 316 317 319 320 319 318 315 313 312 313 312 310 307 303 300 296 291 285 277 268 259 251 244 239 234 230 227 224 221 216 214
270 272 273 275 276 278 279 281 282 283 284 285 286 287 288 289 291 292 293 294 294 295 295 296 297 298 299 300 301 301 302 302 303 304 305 306 307 309 310 311 312 312 312 312 313 313 314 314 314 314 313 314 314 315 317 318 319 320 319 318 317 315 314 315 314 312 308 304 299 295 289 283 277 269 261 251 243 236 232 228 226 224 221 217 214
272 273 274 276 277 279 280 281 282 284 285 286 287 288 289 291 292 293 294 294 294 295 296 297 298 299 300 300 300 301 302 303 304 305 306 307 309 310 311 311 312 312 312 313 313 314 314 314 313 313 313 314 314 316 317 318 320 321 321 321 321 318 316 315 315 312 309 304 299 293 287 280 275 269 262 253 243 236 230 226 223 221 219 217 214
273 274 275 277 278 280 281 282 283 284 286 287 288 289 290 291 292 293 294 294 295 296 297 298 298 299 300 300 301 302 304 305 305 306 307 308 309 310 311 311 312 312 313 313 314 314 314 314 313 313 313 314 315 316 318 320 322 324 324 325 325 323 320 318 316 314 311 305 299 292 285 278 272 267 261 253 245 237 230 225 223 221 219 216 215
274 275 276 278 279 280 281 283 284 285 286 287 288 289 290 291 292 293 294 294 295 296 297 298 299 300 300 302 303 304 305 306 306 307 308 309 310 310 311 312 313 313 314 314 314 314 314 313 313 313 314 315 316 318 320 322 324 326 328 329 329 327 324 322 320 319 315 309 301 293 286 279 270 263 257 251 245 238 230 224 222 222 221 219 217
274 276 277 278 279 281 282 283 284 285 286 287 288 289 291 291 292 293 294 295 296 297 298 299 300 301 302 303 305 305 305 306 307 308 309 310 311 312 313 313 314 314 314 315 315 314 314 313 313 314 315 316 318 319 321 323 326 328 330 331 332 331 328 324 322 321 317 312 304 295 288 280 271 262 253 247 244 239 233 226 222 221 221 221 219
275 276 277 278 279 281 282 283 283 284 286 287 288 289 290 291 292 293 294 295 296 297 298 299 301 302 304 304 305 305 306 307 308 309 310 311 312 313 314 314 314 315 315 315 314 313 313 314 314 314 315 317 318 320 322 324 327 329 331 333 334 335 334 329 325 323 321 317 308 299 290 283 275 265 254 245 240 238 236 231 226 222 220 221 221
275 276 277 278 279 280 281 282 283 284 285 287 288 289 290 291 292 293 294 295 296 297 299 301 302 303 304 304 305 305 307 308 309 310 312 313 314 314 315 315 315 315 314 314 314 314 314 314 314 314 315 317 319 321 324 326 328 329 332 334 336 338 339 335 330 326 323 320 314 305 295 286 278 269 259 248 239 235 234 233 231 227 224 222 222
275 276 277 278 279 280 281 281 282 284 285 286 287 288 290 291 292 293 294 295 297 299 301 302 303 303 304 304 305 307 308 309 311 312 313 314 315 315 315 315 315 314 314 314 314 314 313 313 313 314 316 318 320 323 325 327 328 330 332 335 337 339 341 340 335 329 325 321 317 310 300 291 282 273 265 255 244 236 233 232 232 232 230 227 226
275 276 277 278 279 279 280 280 282 283 284 285 287 288 289 290 291 292 294 296 298 300 301 302 303 303 304 305 307 308 310 311 312 314 314 315 315 315 315 314 314 314 313 313 313 313 313 313 314 315 316 319 321 324 326 327 329 331 332 334 336 338 340 342 341 336 329 324 319 314 305 297 287 278 270 262 251 241 234 231 231 232 232 232 231
275 276 276 277 277 277 278 280 281 282 284 285 286 288 289 289 291 293 295 297 299 301 302 302 303 304 306 307 309 311 312 313 314 315 315 315 315 315 314 314 314 313 313 313 313 312 312 313 314 315 317 320 323 325 327 328 329 331 332 334 336 338 340 342 343 341 336 329 322 317 310 302 293 284 276 268 260 250 241 235 232 232 233 234 235
273 273 274 274 275 276 277 279 280 282 283 285 286 287 288 290 292 295 297 299 300 302 303 304 305 306 308 309 311 312 313 314 315 315 315 315 315 315 314 314 313 313 313 312 311 311 311 312 313 315 318 321 323 324 325 327 328 330 332 333 335 337 339 340 342 343 341 335 327 320 314 306 298 290 281 273 266 259 251 243 237 234 233 234 236
269 270 271 273 274 275 277 279 280 282 283 284 286 287 289 291 293 295 297 300 302 303 304 305 306 308 309 311 312 313 314 315 315 316 316 315 315 314 314 313 313 313 312 311 310 309 310 312 313 315 317 320 322 323 324 326 327 329 331 332 334 336 337 338 340 341 342 340 333 325 317 310 303 295 287 279 272 266 259 253 246 240 236 235 235
267 269 270 272 274 276 278 279 281 282 283 284 286 287 289 291 293 296 299 302 303 304 305 306 307 309 311 312 313 314 315 315 316 316 316 315 315 314 314 314 313 312 310 309 308 309 311 313 314 316 317 319 321 322 324 326 327 328 330 331 332 334 335 336 337 338 340 341 339 332 323 314 307 300 293 285 278 272 265 260 255 250 244 240 238
267 269 271 273 275 277 279 280 281 282 283 284 286 287 290 292 295 298 301 303 304 304 305 307 308 310 312 313 314 314 315 316 316 316 316 315 315 314 314 313 312 310 308 307 307 309 311 313 314 316 317 319 320 322 324 325 327 328 329 330 331 332 333 335 336 337 338 339 339 337 331 321 311 303 296 291 284 278 273 267 262 258 254 250 246
268 270 272 275 276 278 279 280 281 282 283 285 287 289 291 294 297 300 302 303 304 304 306 307 309 311 312 313 314 315 315 316 316 316 315 315 314 314 314 313 311 309 308 308 308 310 311 312 314 315 316 317 319 321 323 324 326 327 328 328 329 330 331 333 334 335 336 336 337 337 334 328 319 308 298 292 287 282 278 274 269 265 261 258 255
270 272 274 276 277 278 279 280 281 283 285 287 289 291 294 296 299 301 302 302 303 304 306 308 310 311 313 314 315 315 316 316 316 315 315 314 314 314 313 312 310 309 309 309 309 310 311 312 312 313 314 316 317 320 321 323 324 325 325 326 328 329 330 331 332 333 333 334 334 335 334 331 326 317 305 294 287 282 278 275 272 269 266 264 262
272 274 276 277 278 279 280 282 284 286 288 290 291 293 295 298 300 301 301 302 303 304 306 308 310 312 313 314 315 315 316 316 316 315 314 314 314 313 312 311 310 309 309 309 310 311 311 312 312 313 314 315 316 318 320 321 322 323 324 324 326 327 328 328 329 330 331 332 332 333 332 331 328 324 316 305 294 284 277 273 271 269 267 265 264
275 276 278 279 280 281 282 285 287 288 290 291 293 295 296 298 299 300 300 301 303 304 307 309 311 312 313 314 315 315 316 315 315 314 314 314 313 312 311 309 309 309 309 309 310 310 311 312 312 313 314 315 316 317 318 319 321 322 323 323 324 325 326 326 327 328 329 330 330 331 331 330 328 325 321 315 307 297 287 278 273 269 267 265 264
278 279 280 281 282 283 285 287 288 290 291 292 294 295 297 298 298 298 299 301 302 305 307 309 311 312 313 314 315 315 315 315 314 313 313 312 312 310 308 307 307 308 308 309 310 311 311 312 313 314 315 316 316 317 318 319 319 320 321 322 322 323 324 325 325 326 326 327 328 329 329 328 327 325 322 318 314 307 300 292 285 278 273 269 267
278 280 281 282 283 285 287 288 289 290 292 293 294 295 296 296 296 297 299 301 303 305 307 310 311 313 314 314 314 314 314 313 312 311 311 310 309 307 305 305 305 306 307 308 309 310 311 312 313 314 314 315 316 316 317 318 318 319 320 321 321 322 322 323 323 323 324 324 325 326 326 326 326 324 322 319 315 311 307 302 296 290 285 279 275
279 281 282 283 284 285 287 288 289 290 291 292 293 294 295 295 295 297 299 301 303 306 308 310 311 313 313 313 313 313 313 312 311 310 309 309 307 305 304 304 304 305 306 307 308 309 310 311 312 312 313 314 314 315 316 317 318 319 319 320 320 321 321 321 321 321 321 321 321 322 323 323 323 322 320 318 315 312 309 305 301 298 293 289 285
280 282 282 283 284 285 286 287 288 289 290 291 292 292 293 293 295 297 299 301 304 306 308 310 312 312 313 312 312 312 312 310 309 308 308 307 305 304 303 303 304 305 306 307 308 309 309 310 311 311 311 312 313 314 315 316 317 318 319 319 320 320 320 319 319 319 318 318 318 318 318 318 319 319 318 316 314 311 309 306 303 301 298 295 292
278 279 280 281 282 284 285 286 287 288 289 289 290 290 291 293 295 297 299 302 304 306 308 310 311 312 312 311 311 311 310 309 307 307 306 305 303 302 303 303 304 305 305 306 307 307 308 309 310 310 311 312 313 313 314 315 316 317 317 318 319 319 319 319 318 318 317 316 315 315 314 314 314 315 315 314 312 310 307 305 303 301 299 297 295
275 276 278 279 281 282 283 284 285 286 287 287 288 289 291 293 295 298 300 302 304 306 308 310 311 311 310 310 310 310 308 306 305 305 304 303 302 301 302 302 303 303 304 305 306 306 307 308 309 310 311 312 313 314 315 315 316 316 317 317 317 317 317 317 316 316 316 315 314 313 313 312 311 311 310 310 310 308 307 305 302 300 298 296 295
274 275 277 278 279 281 281 282 283 284 285 286 288 290 292 294 296 298 300 302 304 306 308 309 310 309 309 308 308 308 306 304 303 302 302 300 300 300 300 300 300 301 302 303 305 306 307 308 309 310 311 312 312 313 313 314 315 315 315 316 315 316 315 315 315 314 314 314 313 312 312 311 310 309 309 308 307 307 306 304 303 301 298 296 294
274 275 277 278 279 280 281 281 282 283 284 286 288 290 292 294 296 298 300 302 304 305 307 308 308 308 306 306 307 306 304 302 301 301 300 299 299 298 298 298 299 299 299 300 302 304 306 307 308 309 310 310 311 311 312 312 313 313 313 314 314 314 313 313 313 313 313 312 312 311 311 310 310 309 308 308 307 306 305 304 303 302 300 298 296